Location: Hilton Head Island
(32.2163°N, 80.7526°W)
Time: 23:48:22
(UTC-05:00)

Tiros 1 despin weight - Pass Details

Date: 23 February 2026
Orbit: 556 x 593 km, 48.2° (Epoch: 3 March)

Event Time Altitude Azimuth Distance (km) Brightness Sun altitude
Rises 17:07:43 0° 320° (NW) 2,736 ? 13.1°
Reaches altitude 10° 17:11:27 10° 354° (N) 1,837 ? 12.3°
Maximum altitude 17:12:58 12° 15° (NNE) 1,730 ? 12.0°
Drops below altitude 10° 17:14:28 10° 36° (NE) 1,835 ? 11.7°
Sets 17:18:11 0° 70° (ENE) 2,730 ? 11.0°
